Simultaneous Nadir Overpasses (SNOs) Predictions

Prediction of SNOs near equator between AQUA and NPP Satellite Orbit:

Table of predicted SNOs near equator for the next 14.0 days since TLE Epoch: 2/2/2017
Index Date (AQUA) Time (AQUA) AQUA Lat,Lon Date (NPP) Time (NPP) NPP Lat,Lon Distance(km) Time Diff (sec)
1 02/04/2017 00:08:47 4.28,-158.94 02/03/2017 23:59:19 4.19,-159.22 32.34 568
2 02/04/2017 00:56:54 0.26, 9.68 02/04/2017 00:48:42 0.37, 9.13 62.47 492
3 02/04/2017 01:45:09 -4.85, 178.28 02/04/2017 01:38:12 -5.03, 177.47 92.16 417
4 02/06/2017 15:42:52 -29.94, 143.41 02/06/2017 15:32:52 -30.48, 142.88 78.62 600
5 02/06/2017 16:24:54 2.89, -42.77 02/06/2017 16:15:49 2.80, -43.13 42.06 545
6 02/06/2017 17:13:01 1.65, 125.86 02/06/2017 17:05:12 1.76, 125.22 72.28 469
7 02/09/2017 07:52:44 -6.04, -95.18 02/09/2017 07:42:47 -6.01, -95.37 21.73 597
8 02/09/2017 08:41:00 1.51, 73.41 02/09/2017 08:32:18 1.40, 72.95 51.92 522
9 02/09/2017 09:29:07 3.03,-117.97 02/09/2017 09:21:40 3.21,-118.68 81.99 447
10 02/12/2017 00:08:51 -4.68, 21.00 02/11/2017 23:59:17 -4.63, 20.71 31.63 574
11 02/12/2017 00:57:06 0.08,-170.40 02/12/2017 00:48:47 -0.04,-170.95 61.77 499
12 02/12/2017 01:45:14 4.39, -1.79 02/12/2017 01:38:10 4.59, -2.60 91.72 424
13 02/14/2017 16:24:57 -3.26, 137.18 02/14/2017 16:15:46 -3.18, 136.81 41.53 551
14 02/14/2017 17:13:13 -1.28, -54.23 02/14/2017 17:05:17 -1.43, -54.86 71.72 476




NCC Satellite Simultaneous Nadir Overpasses (SNOs) Prediction Service
